Regional Weather Roundup
Issued by NWS

Home | Current Version | Previous Version | Graphics & Text | Print | Product List | Glossary On
Versions: 1 2 3 4 5 6 7 8 9 10 11 12 13 14 15 16 17 18 19 20 21 22 23 24 25 26 27 28 29 30 31 32 33 34 35 36 37 38 39 40 41 42 43 44 45 46 47 48 49 50
000
ASUS45 KTFX 171019
RWRMT
MONTANA HOURLY WEATHER ROUNDUP
NATIONAL WEATHER SERVICE GREAT FALLS MT
419 AM MDT THU APR 17 2014

NOTE: "FAIR" INDICATES FEW OR NO CLOUDS BELOW 12000 FEET WITH NO
SIGNIFICANT WEATHER AND/OR OBSTRUCTIONS TO VISIBILITY.

* THESE STATIONS ARE NOT UNDER NWS QUALITY CONTROL. THEY DO NOT
   REPORT WEATHER SUCH AS PRECIPITATION OR FOG.

MTZ001>007-043-171100-
WEST OF THE DIVIDE
CITY           SKY/WX    TMP DP  RH WIND       PRES   REMARKS
KALISPELL      CLOUDY    43  34  71 S9        29.91F
MISSOULA       CLOUDY    39  34  82 SW3       29.97S
BUTTE          CLOUDY    34  25  70 CALM      29.96F
MULLAN PASS    LGT SNOW  30  30 100 VRB5      29.90F VSB M1/4 WCI  25
* ESSEX        N/A       34  32  92 N/A        N/A
* LINCOLN      N/A       37  29  73 SW3        N/A
* LOOKOUT PASS N/A       34  33  96 N/A        N/A
* PLAINS APT   PTCLDY    43  36  76 CALM      29.95F
* POLSON       N/A       38  36  93 SW1        N/A
* RONAN APT    MOCLDY    45  36  71 E5         N/A
* SEELEY LAKE  N/A       33  30  89 N/A        N/A
* THOMP F APT  MOCLDY    32  13  45 N/A        N/A
* YAAK HILL    N/A       42  36  79 E1         N/A
$$

MTZ008-052>055-171100-
SOUTHWEST MONTANA
CITY           SKY/WX    TMP DP  RH WIND       PRES   REMARKS
BOZEMAN        CLOUDY    36  30  79 SE6       29.97F WCI  31
DILLON         CLOUDY    34  18  52 S6        29.96F WCI  29
W YELLOWSTONE  N/A       24  18  78 N/A        N/A
* THREE FORKS  CLOUDY    34  27  76 N/A        N/A
* BOULDER HILL N/A       35  21  57 SW8        N/A   WCI  28
* MONIDA PASS  N/A       27  15  61 E2         N/A
* RAYNOLDS PAS N/A       26   6  42 SE2        N/A
* WHITEHALL    N/A       36  22  57 N3         N/A
* WISE RIVER   N/A       32  21  64 SE3        N/A
$$

MTZ009>010-012-014-046-048-049-054-171100-
EAST SLOPES AND CENTRAL MONTANA
CITY           SKY/WX    TMP DP  RH WIND       PRES   REMARKS
CUT BANK       FOG       21  21 100 NE3       29.87F VSB M1/4
GREAT FALLS    MOCLDY    34  28  79 S9        29.90F WCI  27
HELENA         CLOUDY    37  28  70 CALM      29.95F
MALMSTROM AFB  PTCLDY    34  27  76 S9        29.88F WCI  27
* CONRAD       PTCLDY    27  27 100 N/A        N/A
* DEARBORN     N/A       44  28  53 S6         N/A
* EAST GLACIER N/A       36  30  79 W8         N/A   WCI  30
* MONARCH      N/A       32  21  64 S9         N/A   WCI  24
* PENDROY      N/A       30  29  96 SW2        N/A
* ROGERS PASS  N/A       35  27  73 E6G17      N/A   WCI  30
* SAINT MARY   N/A       35  31  85 W4G11      N/A
* SWEET GRASS  N/A       30  30 100 S17        N/A   WCI  18
* WHITE SULPH  N/A       32  29  89 NE7        N/A   WCI  25
$$

MTZ011-013-016-021-035-040-045-047-050-051-171100-
NORTH CENTRAL MONTANA
CITY           SKY/WX    TMP DP  RH WIND       PRES   REMARKS
HAVRE          MOCLDY    28  23  81 E12       29.93F WCI  18
LEWISTOWN      MOCLDY    30  28  92 E10       29.94F WCI  21
* CHINOOK      PTCLDY    28  21  75 E20G25    29.98F WCI  15
* FORT BENTON  PTCLDY    36  30  79 SE5       29.94S WCI  32
* MALTA APT    CLEAR     28  18  66 E8        30.03F WCI  20
* CHESTER      N/A       30  25  82 SE7G13     N/A   WCI  23
* DENTON       N/A       34  32  92 S12        N/A   WCI  25
* GEYSER       N/A       25  24  96 S1         N/A
* JUDITH GAP   N/A       32  32 100 SE12       N/A   WCI  23
* LOMA         N/A       33  28  82 E10        N/A   WCI  25
$$

MTZ017>020-022>027-061-062-171100-
NORTHEAST MONTANA
CITY           SKY/WX    TMP DP  RH WIND       PRES   REMARKS
GLASGOW        CLOUDY    25  19  78 E15       30.10F WCI  13
GLENDIVE       PTCLDY    27  19  72 E8        30.15F WCI  19
JORDAN         PTCLDY    28  23  81 E9        30.06F WCI  19
SIDNEY         CLOUDY    28  21  75 E6        30.21F WCI  21
WOLF POINT     CLOUDY    30  19  64 E10       30.17F WCI  21
* BEAVER HILL  N/A       23  19  85 E10        N/A   WCI  13
* CIRCLE       N/A       27  23  85 E2         N/A
* LINDSAY DVD  N/A       25  22  88 E8         N/A   WCI  16
* NAVAJO       N/A       24  21  88 SE7        N/A   WCI  16
* SACO         N/A       26  19  75 E19G27     N/A   WCI  12
$$

MTZ028>042-056>058-171100-
SOUTHCENTRAL AND SOUTHEAST MONTANA
CITY           SKY/WX    TMP DP  RH WIND       PRES   REMARKS
BAKER          LGT SNOW  27  25  92 SE16      30.13F WCI  15
BILLINGS       CLOUDY    36  30  79 NW3       30.02S
LIVINGSTON     CLOUDY    34  30  85 E3        29.98F
MILES CITY     CLOUDY    32  27  82 E10       30.09F WCI  24
* LAUREL APT   CLOUDY    34  21  59 N/A        N/A
* ROUNDUP APT  PTCLDY    32  28  85 N/A        N/A
* HYSHAM       N/A       29  24  82 NE3        N/A
* LAME DEER    N/A       30  28  92 S8         N/A   WCI  22
* REED POINT   N/A       33  32  96 N/A        N/A
* ROSCOE HILL  N/A       31  24  75 S4         N/A
$$

REGIONAL REPORTS...DAKOTAS
CITY           SKY/WX    TMP DP  RH WIND       PRES   REMARKS
WILLISTON      CLEAR    N/A N/A N/A N/A       30.24S
DICKINSON      CLOUDY    27  19  72 E10       30.18S WCI  18
CROSBY         CLOUDY    23  19  85 E10       30.27S WCI  13
TIOGA          CLOUDY    23  18  81 E13       30.27S WCI  11
WATFORD CITY   CLOUDY    27  18  69 SE17G22   30.20S WCI  14
BISMARCK       CLOUDY    25  16  69 E10       30.30R WCI  15
GRAND FORKS    CLEAR     21  18  88 NW8       30.32R WCI  11
FARGO          CLEAR     21  16  81 N7        30.28S WCI  12
BUFFALO SD     MOCLDY    28  25  89 SE14      30.08S WCI  17
RAPID CITY     CLOUDY    28  25  89 S10       30.15F WCI  19
$$

REGIONAL REPORTS...WYOMING/IDAHO/WASHINGTON
CITY           SKY/WX    TMP DP  RH WIND       PRES   REMARKS
GILLETTE       PTCLDY    32  28  85 S16       30.03F WCI  21
SHERIDAN       CLOUDY    32  30  92 N5        30.02S WCI  27
CODY           PTCLDY    27  25  92 CALM      29.99F
YELLOWSTONE LA PTCLDY    21  16  81 CALM      30.04R
SALMON         MOCLDY    34  21  59 CALM      30.00R
MULLAN PASS    LGT SNOW  30  30 100 VRB5      29.90S VSB M1/4 WCI  25
SAND POINT     LGT RAIN  41  41 100 CALM      29.91F
SPOKANE        LGT RAIN  45  39  80 S8        29.90F
$$

REGIONAL REPORTS...ALBERTA
CITY           SKY/WX    TMP DP  RH WIND       PRES   REMARKS
CALGARY        FOG       28  27  96 SE9       29.82F VSB M1/4 WCI  19
LETHBRIDGE     FOG       30  30 100 SW8       29.83F WCI  22
MEDICINE HAT   CLOUDY    37  30  76 SW5       29.89F WCI  33
EDMONTON       LGT SNOW  28  25  89 SE18      29.89F VSB 2    WCI  15
WATERTON GATE  N/A       37  30  76 SW10       N/A   WCI  30
CARDSTON       N/A       27  27 100 SE6        N/A   WCI  20
MILK RIVER     N/A       32  30  92 S12        N/A   WCI  23
$$

REGIONAL REPORTS...SASKATCHEWAN
CITY           SKY/WX    TMP DP  RH WIND       PRES   REMARKS
SWIFT CURRENT  CLOUDY    23  19  85 SE22G28   30.03F WCI   8
MOOSE JAW      CLOUDY    25  16  69 SE13      30.19F WCI  13
REGINA         CLOUDY    23  16  74 SE18      30.24F WCI   9
VAL MARIE      N/A       27  19  72 SE14G20    N/A   WCI  16
ASSINIBOIA     N/A       25  19  78 SE15G21    N/A   WCI  13
CORONACH       N/A       25  21  85 SE15       N/A   WCI  13

$$




USA.gov is the U.S. government's official web portal to all federal, state and local government web resources and services.